Location: *
(46.1833°N, 22.7667°E)
Time: 12:35:00
(UTC+00:00)

ADEOS Rocket - Pass Details

Date: 17 September 2019
Orbit: 859 x 1306 km, 98.7° (Epoch: 15 October)

Event Time Altitude Azimuth Distance (km) Brightness Sun altitude
Rises 19:16:49 0° 10° (N) 4,016 6.5 -26.6°
Reaches altitude 10° 19:19:22 10° 7° (N) 3,108 5.9 -27.0°
Maximum altitude 19:26:22 57° 292° (WNW) 1,448 4.1 -27.9°
Drops below altitude 10° 19:33:50 10° 216° (SW) 3,300 5.7 -29.0°
Sets 19:36:38 0° 212° (SSW) 4,281 6.3 -29.3°
